Time,TemperatureF,DewpointF,PressureIn,WindDirection,WindDirectionDegrees,WindSpeedMPH,WindSpeedGustMPH,Humidity,HourlyPrecipIn,Conditions,Clouds,dailyrainin,SolarRadiationWatts/m^2,SoftwareType,DateUTC
2013-04-22 00:00:00,36.0,-5.8,30.51,SE,132,8.0,-999.0,16,0.00,,,0.00,0,WeatherHawk,2013-04-22 04:00:00,
2013-04-22 00:05:00,35.9,-5.9,30.51,SE,142,6.0,-999.0,16,0.00,,,0.00,0,WeatherHawk,2013-04-22 04:05:00,
2013-04-22 00:10:00,36.1,-3.3,30.50,SSE,152,12.0,-999.0,18,0.00,,,0.00,0,WeatherHawk,2013-04-22 04:10:00,
2013-04-22 00:15:00,36.0,-5.7,30.52,ESE,110,8.0,-999.0,16,0.00,,,0.00,0,WeatherHawk,2013-04-22 04:15:00,
2013-04-22 00:20:00,35.3,-12.2,30.52,SE,140,8.0,-999.0,12,0.00,,,0.00,0,WeatherHawk,2013-04-22 04:20:00,
2013-04-22 00:25:00,35.5,-8.9,30.51,ESE,113,11.0,-999.0,14,0.00,,,0.00,0,WeatherHawk,2013-04-22 04:25:00,
2013-04-22 00:30:00,35.6,-8.9,30.51,SE,143,6.0,-999.0,14,0.00,,,0.00,0,WeatherHawk,2013-04-22 04:30:00,
2013-04-22 00:35:00,35.1,-6.5,30.50,ESE,121,8.0,-999.0,16,0.00,,,0.00,0,WeatherHawk,2013-04-22 04:35:00,
2013-04-22 00:40:00,35.3,-15.7,30.51,East,84,8.0,-999.0,10,0.00,,,0.00,0,WeatherHawk,2013-04-22 04:40:00,
2013-04-22 00:45:00,35.3,-13.9,30.51,ESE,107,8.0,-999.0,11,0.00,,,0.00,0,WeatherHawk,2013-04-22 04:45:00,
2013-04-22 00:50:00,35.2,-4.0,30.50,SE,135,8.0,-999.0,18,0.00,,,0.00,0,WeatherHawk,2013-04-22 04:50:00,
2013-04-22 00:55:00,34.7,-3.3,30.51,SE,132,4.0,-999.0,19,0.00,,,0.00,0,WeatherHawk,2013-04-22 04:55:00,
2013-04-22 01:00:00,34.9,-6.7,30.49,ESE,108,9.0,-999.0,16,0.00,,,0.00,0,WeatherHawk,2013-04-22 05:00:00,
2013-04-22 01:05:00,34.5,-9.7,30.50,South,171,7.0,-999.0,14,0.00,,,0.00,0,WeatherHawk,2013-04-22 05:05:00,
2013-04-22 01:10:00,34.5,-4.6,30.49,ENE,73,6.0,-999.0,18,0.00,,,0.00,0,WeatherHawk,2013-04-22 05:10:00,
2013-04-22 01:15:00,34.6,-5.7,30.50,ESE,118,8.0,-999.0,17,0.00,,,0.00,0,WeatherHawk,2013-04-22 05:15:00,
2013-04-22 01:20:00,34.5,-7.0,30.50,SE,131,8.0,-999.0,16,0.00,,,0.00,0,WeatherHawk,2013-04-22 05:20:00,
2013-04-22 01:25:00,34.2,-1.6,30.50,SE,139,4.0,-999.0,21,0.00,,,0.00,0,WeatherHawk,2013-04-22 05:25:00,
2013-04-22 01:30:00,34.4,-3.5,30.50,ESE,102,6.0,-999.0,19,0.00,,,0.00,0,WeatherHawk,2013-04-22 05:30:00,
2013-04-22 01:35:00,34.6,-6.9,30.50,East,96,7.0,-999.0,16,0.00,,,0.00,0,WeatherHawk,2013-04-22 05:35:00,
2013-04-22 01:40:00,34.3,-0.5,30.49,ESE,109,5.0,-999.0,22,0.00,,,0.00,0,WeatherHawk,2013-04-22 05:40:00,
2013-04-22 01:50:00,34.4,-1.5,30.50,South,185,6.0,-999.0,21,0.00,,,0.00,0,WeatherHawk,2013-04-22 05:50:00,
2013-04-22 02:00:00,34.2,1.2,30.49,SSE,165,5.0,-999.0,24,0.00,,,0.00,0,WeatherHawk,2013-04-22 06:00:00,
2013-04-22 02:10:00,34.4,-0.5,30.48,SE,124,7.0,-999.0,22,0.00,,,0.00,0,WeatherHawk,2013-04-22 06:10:00,
2013-04-22 02:15:00,34.1,0.3,30.48,SE,139,5.0,-999.0,23,0.00,,,0.00,0,WeatherHawk,2013-04-22 06:15:00,
2013-04-22 02:25:00,34.2,0.3,30.47,SE,136,9.0,-999.0,23,0.00,,,0.00,0,WeatherHawk,2013-04-22 06:25:00,
2013-04-22 02:30:00,34.2,2.1,30.47,SSE,149,11.0,-999.0,25,0.00,,,0.00,0,WeatherHawk,2013-04-22 06:30:00,
2013-04-22 02:35:00,34.3,1.3,30.47,SE,137,7.0,-999.0,24,0.00,,,0.00,0,WeatherHawk,2013-04-22 06:35:00,
2013-04-22 02:40:00,34.3,2.1,30.47,East,84,8.0,-999.0,25,0.00,,,0.00,0,WeatherHawk,2013-04-22 06:40:00,
2013-04-22 02:45:00,34.2,2.0,30.47,ESE,106,7.0,-999.0,25,0.00,,,0.00,0,WeatherHawk,2013-04-22 06:45:00,
2013-04-22 02:50:00,34.4,4.7,30.46,SE,137,9.0,-999.0,28,0.00,,,0.00,0,WeatherHawk,2013-04-22 06:50:00,
2013-04-22 02:55:00,34.0,5.1,30.46,SE,146,4.0,-999.0,29,0.00,,,0.00,0,WeatherHawk,2013-04-22 06:55:00,
2013-04-22 03:00:00,33.9,5.8,30.46,SSE,149,4.0,-999.0,30,0.00,,,0.00,0,WeatherHawk,2013-04-22 07:00:00,
2013-04-22 03:07:00,34.1,5.2,30.45,SE,144,6.0,-999.0,29,0.00,,,0.00,0,WeatherHawk,2013-04-22 07:07:00,
2013-04-22 03:15:00,34.1,6.7,30.46,ESE,111,5.0,-999.0,31,0.00,,,0.00,0,WeatherHawk,2013-04-22 07:15:00,
2013-04-22 03:20:00,33.9,7.9,30.46,East,96,5.0,-999.0,33,0.00,,,0.00,0,WeatherHawk,2013-04-22 07:20:00,
2013-04-22 03:25:00,34.0,7.3,30.46,ESE,102,7.0,-999.0,32,0.00,,,0.00,0,WeatherHawk,2013-04-22 07:25:00,
2013-04-22 03:30:00,33.8,8.5,30.46,SE,135,6.0,-999.0,34,0.00,,,0.00,0,WeatherHawk,2013-04-22 07:30:00,
2013-04-22 03:35:00,34.6,9.2,30.47,East,101,9.0,-999.0,34,0.00,,,0.00,0,WeatherHawk,2013-04-22 07:35:00,
2013-04-22 03:40:00,35.1,10.2,30.46,SE,145,5.0,-999.0,35,0.00,,,0.00,0,WeatherHawk,2013-04-22 07:40:00,
2013-04-22 03:45:00,34.4,9.6,30.46,ESE,102,6.0,-999.0,35,0.00,,,0.00,0,WeatherHawk,2013-04-22 07:45:00,
2013-04-22 03:50:00,34.1,9.4,30.45,ESE,122,6.0,-999.0,35,0.00,,,0.00,0,WeatherHawk,2013-04-22 07:50:00,
2013-04-22 03:55:00,34.4,10.9,30.46,SSE,148,6.0,-999.0,37,0.00,,,0.00,0,WeatherHawk,2013-04-22 07:55:00,
2013-04-22 04:00:00,34.4,11.4,30.45,ESE,121,8.0,-999.0,38,0.00,,,0.00,0,WeatherHawk,2013-04-22 08:00:00,
2013-04-22 04:05:00,34.6,11.6,30.45,East,99,9.0,-999.0,38,0.00,,,0.00,1,WeatherHawk,2013-04-22 08:05:00,
2013-04-22 04:10:00,34.2,11.8,30.46,ESE,120,6.0,-999.0,39,0.00,,,0.00,0,WeatherHawk,2013-04-22 08:10:00,
2013-04-22 04:15:00,34.3,12.5,30.47,ESE,119,5.0,-999.0,40,0.00,,,0.00,0,WeatherHawk,2013-04-22 08:15:00,
2013-04-22 04:20:00,34.4,13.2,30.45,ENE,71,8.0,-999.0,41,0.00,,,0.00,0,WeatherHawk,2013-04-22 08:20:00,
2013-04-22 04:25:00,34.3,13.1,30.45,SE,129,6.0,-999.0,41,0.00,,,0.00,0,WeatherHawk,2013-04-22 08:25:00,
2013-04-22 04:30:00,34.4,13.1,30.45,SE,130,5.0,-999.0,41,0.00,,,0.00,0,WeatherHawk,2013-04-22 08:30:00,
2013-04-22 04:35:00,33.9,13.8,30.44,SE,124,4.0,-999.0,43,0.00,,,0.00,0,WeatherHawk,2013-04-22 08:35:00,
2013-04-22 04:40:00,34.3,14.1,30.44,ESE,106,6.0,-999.0,43,0.00,,,0.00,0,WeatherHawk,2013-04-22 08:40:00,
2013-04-22 04:45:00,34.3,14.7,30.45,East,99,5.0,-999.0,44,0.00,,,0.00,0,WeatherHawk,2013-04-22 08:45:00,
2013-04-22 04:50:00,34.0,14.9,30.43,ESE,118,5.0,-999.0,45,0.00,,,0.00,0,WeatherHawk,2013-04-22 08:50:00,
2013-04-22 04:55:00,34.1,15.0,30.45,SSE,152,5.0,-999.0,45,0.00,,,0.00,0,WeatherHawk,2013-04-22 08:55:00,
2013-04-22 05:00:00,33.8,15.7,30.45,SE,131,4.0,-999.0,47,0.00,,,0.00,0,WeatherHawk,2013-04-22 09:00:00,
2013-04-22 05:10:00,34.2,16.6,30.45,ESE,120,7.0,-999.0,48,0.00,,,0.00,0,WeatherHawk,2013-04-22 09:10:00,
2013-04-22 05:15:00,34.0,16.4,30.44,East,90,8.0,-999.0,48,0.00,,,0.00,0,WeatherHawk,2013-04-22 09:15:00,
2013-04-22 05:20:00,33.7,16.2,30.44,ENE,68,6.0,-999.0,48,0.00,,,0.00,0,WeatherHawk,2013-04-22 09:20:00,
2013-04-22 05:25:00,33.7,17.0,30.44,ESE,120,3.0,-999.0,50,0.00,,,0.00,0,WeatherHawk,2013-04-22 09:25:00,
2013-04-22 05:35:00,34.1,17.9,30.43,SE,128,7.0,-999.0,51,0.00,,,0.00,0,WeatherHawk,2013-04-22 09:35:00,
2013-04-22 05:45:00,34.1,18.7,30.44,ESE,108,6.0,-999.0,53,0.00,,,0.00,0,WeatherHawk,2013-04-22 09:45:00,
2013-04-22 05:50:00,33.7,18.8,30.44,SE,137,6.0,-999.0,54,0.00,,,0.00,0,WeatherHawk,2013-04-22 09:50:00,
2013-04-22 05:55:00,33.8,19.7,30.44,ESE,115,6.0,-999.0,56,0.00,,,0.00,0,WeatherHawk,2013-04-22 09:55:00,
2013-04-22 06:00:00,34.1,20.0,30.44,SE,139,8.0,-999.0,56,0.00,,,0.00,0,WeatherHawk,2013-04-22 10:00:00,
2013-04-22 06:05:00,33.3,19.3,30.44,SE,134,6.0,-999.0,56,0.00,,,0.00,0,WeatherHawk,2013-04-22 10:05:00,
2013-04-22 06:10:00,33.3,19.7,30.44,SE,139,5.0,-999.0,57,0.00,,,0.00,0,WeatherHawk,2013-04-22 10:10:00,
2013-04-22 06:15:00,33.2,19.6,30.44,ESE,114,6.0,-999.0,57,0.00,,,0.00,0,WeatherHawk,2013-04-22 10:15:00,
2013-04-22 06:20:00,33.3,20.1,30.44,ESE,117,5.0,-999.0,58,0.00,,,0.00,0,WeatherHawk,2013-04-22 10:20:00,
2013-04-22 06:25:00,33.6,20.8,30.44,SE,130,6.0,-999.0,59,0.00,,,0.00,1,WeatherHawk,2013-04-22 10:25:00,
2013-04-22 06:30:00,33.5,21.1,30.44,ENE,73,6.0,-999.0,60,0.00,,,0.00,1,WeatherHawk,2013-04-22 10:30:00,
2013-04-22 06:35:00,33.4,21.0,30.43,ESE,106,7.0,-999.0,60,0.00,,,0.00,2,WeatherHawk,2013-04-22 10:35:00,
2013-04-22 06:45:00,33.5,21.1,30.44,East,98,8.0,-999.0,60,0.00,,,0.00,9,WeatherHawk,2013-04-22 10:45:00,
2013-04-22 06:50:00,33.4,21.4,30.44,ESE,123,7.0,-999.0,61,0.00,,,0.00,11,WeatherHawk,2013-04-22 10:50:00,
2013-04-22 06:55:00,34.0,22.0,30.44,SE,146,5.0,-999.0,61,0.00,,,0.00,14,WeatherHawk,2013-04-22 10:55:00,
2013-04-22 07:00:00,33.5,21.9,30.44,ESE,111,5.0,-999.0,62,0.00,,,0.00,22,WeatherHawk,2013-04-22 11:00:00,
2013-04-22 07:05:00,33.8,22.2,30.44,SE,127,6.0,-999.0,62,0.00,,,0.00,31,WeatherHawk,2013-04-22 11:05:00,
2013-04-22 07:10:00,33.7,21.7,30.45,ESE,115,6.0,-999.0,61,0.00,,,0.00,33,WeatherHawk,2013-04-22 11:10:00,
2013-04-22 07:15:00,34.1,22.0,30.45,SE,141,6.0,-999.0,61,0.00,,,0.00,43,WeatherHawk,2013-04-22 11:15:00,
2013-04-22 07:20:00,34.5,22.1,30.45,SE,131,4.0,-999.0,60,0.00,,,0.00,70,WeatherHawk,2013-04-22 11:20:00,
2013-04-22 07:25:00,34.8,21.9,30.45,SE,139,6.0,-999.0,59,0.00,,,0.00,73,WeatherHawk,2013-04-22 11:25:00,
2013-04-22 07:40:00,35.9,20.9,30.45,ESE,107,6.0,-999.0,54,0.00,,,0.00,126,WeatherHawk,2013-04-22 11:40:00,
2013-04-22 07:45:00,36.5,20.6,30.44,ENE,74,6.0,-999.0,52,0.00,,,0.00,138,WeatherHawk,2013-04-22 11:45:00,
2013-04-22 07:55:00,37.1,19.2,30.44,ENE,74,7.0,-999.0,48,0.00,,,0.00,160,WeatherHawk,2013-04-22 11:55:00,
2013-04-22 08:10:00,38.4,18.9,30.45,East,91,7.0,-999.0,45,0.00,,,0.00,215,WeatherHawk,2013-04-22 12:10:00,
2013-04-22 08:35:00,39.5,14.7,30.45,ESE,111,9.0,-999.0,36,0.00,,,0.00,283,WeatherHawk,2013-04-22 12:35:00,
2013-04-22 08:40:00,39.7,11.5,30.45,NE,55,10.0,-999.0,31,0.00,,,0.00,294,WeatherHawk,2013-04-22 12:40:00,
2013-04-22 08:45:00,39.7,11.5,30.45,ESE,117,11.0,-999.0,31,0.00,,,0.00,318,WeatherHawk,2013-04-22 12:45:00,
2013-04-22 08:50:00,40.8,11.8,30.45,ESE,107,7.0,-999.0,30,0.00,,,0.00,331,WeatherHawk,2013-04-22 12:50:00,
2013-04-22 08:55:00,40.4,7.4,30.44,East,99,10.0,-999.0,25,0.00,,,0.00,355,WeatherHawk,2013-04-22 12:55:00,
2013-04-22 09:00:00,41.2,9.0,30.44,ESE,121,7.0,-999.0,26,0.00,,,0.00,369,WeatherHawk,2013-04-22 13:00:00,
2013-04-22 09:05:00,42.1,7.9,30.43,East,99,7.0,-999.0,24,0.00,,,0.00,385,WeatherHawk,2013-04-22 13:05:00,
2013-04-22 09:10:00,42.0,5.0,30.44,East,92,9.0,-999.0,21,0.00,,,0.00,400,WeatherHawk,2013-04-22 13:10:00,
2013-04-22 09:15:00,42.5,4.3,30.43,ESE,115,8.0,-999.0,20,0.00,,,0.00,406,WeatherHawk,2013-04-22 13:15:00,
2013-04-22 09:20:00,43.3,1.4,30.44,ESE,110,7.0,-999.0,17,0.00,,,0.00,407,WeatherHawk,2013-04-22 13:20:00,
2013-04-22 09:25:00,46.3,-0.2,30.43,South,190,4.0,-999.0,14,0.00,,,0.00,441,WeatherHawk,2013-04-22 13:25:00,
2013-04-22 09:35:00,44.6,-8.6,30.42,ESE,113,7.0,-999.0,10,0.00,,,0.00,482,WeatherHawk,2013-04-22 13:35:00,
2013-04-22 09:45:00,45.8,-12.1,30.42,ESE,103,7.0,-999.0,8,0.00,,,0.00,510,WeatherHawk,2013-04-22 13:45:00,
2013-04-22 09:50:00,47.1,-11.2,30.42,ESE,123,5.0,-999.0,8,0.00,,,0.00,524,WeatherHawk,2013-04-22 13:50:00,
2013-04-22 09:55:00,45.6,-18.0,30.42,SE,128,7.0,-999.0,6,0.00,,,0.00,526,WeatherHawk,2013-04-22 13:55:00,
2013-04-22 10:00:00,47.0,-20.4,30.41,East,87,6.0,-999.0,5,0.00,,,0.00,553,WeatherHawk,2013-04-22 14:00:00,
2013-04-22 10:05:00,49.3,-7.1,30.41,ESE,106,6.0,-999.0,9,0.00,,,0.00,568,WeatherHawk,2013-04-22 14:05:00,
2013-04-22 10:10:00,48.3,-5.7,30.42,ESE,102,6.0,-999.0,10,0.00,,,0.00,580,WeatherHawk,2013-04-22 14:10:00,
2013-04-22 10:15:00,49.2,-23.1,30.42,ESE,116,6.0,-999.0,4,0.00,,,0.00,593,WeatherHawk,2013-04-22 14:15:00,
2013-04-22 10:25:00,49.3,-18.7,30.41,SE,138,4.0,-999.0,5,0.00,,,0.00,618,WeatherHawk,2013-04-22 14:25:00,
2013-04-22 10:30:00,49.8,-14.9,30.41,SSE,148,10.0,-999.0,6,0.00,,,0.00,631,WeatherHawk,2013-04-22 14:30:00,
2013-04-22 10:35:00,52.8,-16.2,30.40,East,100,7.0,-999.0,5,0.00,,,0.00,642,WeatherHawk,2013-04-22 14:35:00,
2013-04-22 10:40:00,51.4,-17.2,30.41,ESE,122,8.0,-999.0,5,0.00,,,0.00,655,WeatherHawk,2013-04-22 14:40:00,
2013-04-22 10:45:00,54.4,-15.1,30.40,ENE,57,4.0,-999.0,5,0.00,,,0.00,669,WeatherHawk,2013-04-22 14:45:00,
2013-04-22 10:50:00,52.1,-16.8,30.40,ESE,106,6.0,-999.0,5,0.00,,,0.00,678,WeatherHawk,2013-04-22 14:50:00,
2013-04-22 11:00:00,53.5,-15.8,30.40,SSE,167,8.0,-999.0,5,0.00,,,0.00,696,WeatherHawk,2013-04-22 15:00:00,
2013-04-22 11:05:00,52.2,-16.7,30.40,SE,142,6.0,-999.0,5,0.00,,,0.00,715,WeatherHawk,2013-04-22 15:05:00,
2013-04-22 11:10:00,52.2,-16.7,30.40,ESE,115,6.0,-999.0,5,0.00,,,0.00,722,WeatherHawk,2013-04-22 15:10:00,
2013-04-22 11:15:00,50.7,-17.7,30.40,ESE,102,8.0,-999.0,5,0.00,,,0.00,732,WeatherHawk,2013-04-22 15:15:00,
2013-04-22 11:20:00,54.6,-14.9,30.41,SE,144,6.0,-999.0,5,0.00,,,0.00,742,WeatherHawk,2013-04-22 15:20:00,
2013-04-22 11:25:00,50.3,-18.0,30.40,SE,124,8.0,-999.0,5,0.00,,,0.00,753,WeatherHawk,2013-04-22 15:25:00,
2013-04-22 11:35:00,54.9,-14.7,30.40,SSE,151,4.0,-999.0,5,0.00,,,0.00,656,WeatherHawk,2013-04-22 15:35:00,
2013-04-22 11:40:00,53.5,-15.7,30.39,East,80,6.0,-999.0,5,0.00,,,0.00,733,WeatherHawk,2013-04-22 15:40:00,
2013-04-22 11:45:00,51.8,-16.9,30.38,SE,130,5.0,-999.0,5,0.00,,,0.00,792,WeatherHawk,2013-04-22 15:45:00,
2013-04-22 11:50:00,55.7,-14.2,30.39,SSE,157,3.0,-999.0,5,0.00,,,0.00,799,WeatherHawk,2013-04-22 15:50:00,
2013-04-22 12:00:00,56.2,-13.8,30.38,ESE,118,3.0,-999.0,5,0.00,,,0.00,776,WeatherHawk,2013-04-22 16:00:00,
2013-04-22 12:10:00,54.2,-15.3,30.39,South,182,8.0,-999.0,5,0.00,,,0.00,795,WeatherHawk,2013-04-22 16:10:00,
2013-04-22 12:20:00,53.9,-15.4,30.38,SSW,208,7.0,-999.0,5,0.00,,,0.00,847,WeatherHawk,2013-04-22 16:20:00,
2013-04-22 12:25:00,52.6,-16.4,30.37,ENE,77,5.0,-999.0,5,0.00,,,0.00,819,WeatherHawk,2013-04-22 16:25:00,
2013-04-22 12:35:00,53.0,-16.1,30.38,SE,125,6.0,-999.0,5,0.00,,,0.00,855,WeatherHawk,2013-04-22 16:35:00,
2013-04-22 12:40:00,55.4,-14.4,30.37,East,98,5.0,-999.0,5,0.00,,,0.00,833,WeatherHawk,2013-04-22 16:40:00,
2013-04-22 12:50:00,55.2,-14.5,30.37,SSE,159,5.0,-999.0,5,0.00,,,0.00,840,WeatherHawk,2013-04-22 16:50:00,
2013-04-22 13:00:00,54.8,-14.8,30.36,East,81,6.0,-999.0,5,0.00,,,0.00,850,WeatherHawk,2013-04-22 17:00:00,
2013-04-22 13:05:00,54.2,-15.3,30.36,ESE,117,9.0,-999.0,5,0.00,,,0.00,844,WeatherHawk,2013-04-22 17:05:00,
2013-04-22 13:10:00,54.1,-15.3,30.36,East,94,5.0,-999.0,5,0.00,,,0.00,843,WeatherHawk,2013-04-22 17:10:00,
2013-04-22 13:15:00,58.7,-12.1,30.36,ESE,103,4.0,-999.0,5,0.00,,,0.00,854,WeatherHawk,2013-04-22 17:15:00,
2013-04-22 13:20:00,54.0,-15.4,30.35,SE,124,9.0,-999.0,5,0.00,,,0.00,854,WeatherHawk,2013-04-22 17:20:00,
2013-04-22 13:30:00,56.7,-13.4,30.35,East,89,7.0,-999.0,5,0.00,,,0.00,854,WeatherHawk,2013-04-22 17:30:00,
2013-04-22 13:35:00,60.8,-10.5,30.34,WNW,303,8.0,-999.0,5,0.00,,,0.00,851,WeatherHawk,2013-04-22 17:35:00,
2013-04-22 13:45:00,55.2,-14.5,30.34,East,88,5.0,-999.0,5,0.00,,,0.00,850,WeatherHawk,2013-04-22 17:45:00,
2013-04-22 13:50:00,56.3,-13.8,30.34,NE,56,5.0,-999.0,5,0.00,,,0.00,850,WeatherHawk,2013-04-22 17:50:00,
2013-04-22 14:00:00,59.3,-11.6,30.33,SE,139,5.0,-999.0,5,0.00,,,0.00,844,WeatherHawk,2013-04-22 18:00:00,
2013-04-22 14:05:00,56.1,-13.9,30.33,SE,127,8.0,-999.0,5,0.00,,,0.00,836,WeatherHawk,2013-04-22 18:05:00,
2013-04-22 14:10:00,56.8,-13.4,30.33,ESE,118,5.0,-999.0,5,0.00,,,0.00,834,WeatherHawk,2013-04-22 18:10:00,
2013-04-22 14:20:00,60.1,-11.1,30.33,East,82,3.0,-999.0,5,0.00,,,0.00,825,WeatherHawk,2013-04-22 18:20:00,
2013-04-22 14:25:00,58.0,-12.6,30.32,SE,135,7.0,-999.0,5,0.00,,,0.00,821,WeatherHawk,2013-04-22 18:25:00,
2013-04-22 14:30:00,58.6,-12.1,30.32,ENE,65,8.0,-999.0,5,0.00,,,0.00,814,WeatherHawk,2013-04-22 18:30:00,
2013-04-22 14:40:00,56.1,-13.9,30.32,ENE,74,10.0,-999.0,5,0.00,,,0.00,800,WeatherHawk,2013-04-22 18:40:00,
2013-04-22 14:45:00,55.8,-14.1,30.32,ENE,61,11.0,-999.0,5,0.00,,,0.00,796,WeatherHawk,2013-04-22 18:45:00,
2013-04-22 14:50:00,56.2,-13.9,30.31,ESE,120,10.0,-999.0,5,0.00,,,0.00,790,WeatherHawk,2013-04-22 18:50:00,
2013-04-22 14:55:00,56.0,-13.9,30.31,ESE,116,12.0,-999.0,5,0.00,,,0.00,784,WeatherHawk,2013-04-22 18:55:00,
2013-04-22 15:05:00,59.3,-11.6,30.30,ENE,72,7.0,-999.0,5,0.00,,,0.00,765,WeatherHawk,2013-04-22 19:05:00,
2013-04-22 15:10:00,59.5,-11.5,30.30,East,98,8.0,-999.0,5,0.00,,,0.00,759,WeatherHawk,2013-04-22 19:10:00,
2013-04-22 15:15:00,58.0,-12.5,30.30,ESE,117,7.0,-999.0,5,0.00,,,0.00,751,WeatherHawk,2013-04-22 19:15:00,
2013-04-22 15:25:00,58.1,-12.5,30.30,East,82,8.0,-999.0,5,0.00,,,0.00,735,WeatherHawk,2013-04-22 19:25:00,
2013-04-22 15:30:00,56.2,-13.8,30.30,East,90,9.0,-999.0,5,0.00,,,0.00,726,WeatherHawk,2013-04-22 19:30:00,
2013-04-22 15:35:00,57.0,-13.2,30.30,East,90,10.0,-999.0,5,0.00,,,0.00,714,WeatherHawk,2013-04-22 19:35:00,
2013-04-22 15:40:00,56.6,-13.5,30.29,ESE,111,14.0,-999.0,5,0.00,,,0.00,707,WeatherHawk,2013-04-22 19:40:00,
2013-04-22 15:45:00,57.8,-12.7,30.29,ESE,109,14.0,-999.0,5,0.00,,,0.00,695,WeatherHawk,2013-04-22 19:45:00,
2013-04-22 15:55:00,58.8,-11.9,30.28,ESE,103,9.0,-999.0,5,0.00,,,0.00,673,WeatherHawk,2013-04-22 19:55:00,
2013-04-22 16:00:00,58.4,-12.2,30.28,ESE,109,11.0,-999.0,5,0.00,,,0.00,663,WeatherHawk,2013-04-22 20:00:00,
2013-04-22 16:05:00,58.4,-12.3,30.28,ESE,105,9.0,-999.0,5,0.00,,,0.00,651,WeatherHawk,2013-04-22 20:05:00,
2013-04-22 16:10:00,57.3,-13.1,30.28,SE,138,10.0,-999.0,5,0.00,,,0.00,641,WeatherHawk,2013-04-22 20:10:00,
2013-04-22 16:15:00,58.2,-12.4,30.27,SE,133,6.0,-999.0,5,0.00,,,0.00,624,WeatherHawk,2013-04-22 20:15:00,
2013-04-22 16:20:00,58.3,-12.3,30.27,ESE,110,5.0,-999.0,5,0.00,,,0.00,615,WeatherHawk,2013-04-22 20:20:00,
2013-04-22 16:25:00,57.8,-12.7,30.27,ESE,105,12.0,-999.0,5,0.00,,,0.00,603,WeatherHawk,2013-04-22 20:25:00,
2013-04-22 16:30:00,58.5,-12.1,30.27,ESE,118,8.0,-999.0,5,0.00,,,0.00,593,WeatherHawk,2013-04-22 20:30:00,
2013-04-22 16:35:00,58.4,-12.2,30.27,ESE,109,9.0,-999.0,5,0.00,,,0.00,579,WeatherHawk,2013-04-22 20:35:00,
2013-04-22 16:40:00,58.7,-12.0,30.27,ESE,109,7.0,-999.0,5,0.00,,,0.00,566,WeatherHawk,2013-04-22 20:40:00,
2013-04-22 16:45:00,57.2,-13.1,30.26,SE,143,13.0,-999.0,5,0.00,,,0.00,552,WeatherHawk,2013-04-22 20:45:00,
2013-04-22 16:50:00,59.0,-11.8,30.27,ESE,107,7.0,-999.0,5,0.00,,,0.00,538,WeatherHawk,2013-04-22 20:50:00,
2013-04-22 16:55:00,58.0,-12.5,30.26,SE,138,8.0,-999.0,5,0.00,,,0.00,521,WeatherHawk,2013-04-22 20:55:00,
2013-04-22 17:00:00,57.9,-12.6,30.27,SE,142,8.0,-999.0,5,0.00,,,0.00,512,WeatherHawk,2013-04-22 21:00:00,
2013-04-22 17:05:00,58.4,-12.2,30.26,ESE,109,8.0,-999.0,5,0.00,,,0.00,497,WeatherHawk,2013-04-22 21:05:00,
2013-04-22 17:15:00,58.6,-12.1,30.26,SE,136,7.0,-999.0,5,0.00,,,0.00,467,WeatherHawk,2013-04-22 21:15:00,
2013-04-22 17:20:00,59.9,-11.2,30.27,ENE,71,5.0,-999.0,5,0.00,,,0.00,453,WeatherHawk,2013-04-22 21:20:00,
2013-04-22 17:25:00,58.6,-12.1,30.26,East,96,12.0,-999.0,5,0.00,,,0.00,438,WeatherHawk,2013-04-22 21:25:00,
2013-04-22 17:30:00,58.2,-12.4,30.26,ESE,122,8.0,-999.0,5,0.00,,,0.00,424,WeatherHawk,2013-04-22 21:30:00,
2013-04-22 17:35:00,57.8,-12.7,30.26,ESE,114,10.0,-999.0,5,0.00,,,0.00,407,WeatherHawk,2013-04-22 21:35:00,
2013-04-22 17:40:00,58.8,-11.9,30.26,East,90,11.0,-999.0,5,0.00,,,0.00,392,WeatherHawk,2013-04-22 21:40:00,
2013-04-22 17:45:00,58.6,-12.1,30.26,East,82,8.0,-999.0,5,0.00,,,0.00,375,WeatherHawk,2013-04-22 21:45:00,
2013-04-22 17:50:00,57.7,-12.8,30.25,ESE,108,8.0,-999.0,5,0.00,,,0.00,359,WeatherHawk,2013-04-22 21:50:00,
2013-04-22 17:55:00,58.0,-12.5,30.25,East,85,7.0,-999.0,5,0.00,,,0.00,338,WeatherHawk,2013-04-22 21:55:00,
2013-04-22 18:00:00,58.1,-12.5,30.24,East,91,8.0,-999.0,5,0.00,,,0.00,325,WeatherHawk,2013-04-22 22:00:00,
2013-04-22 18:05:00,57.9,-12.6,30.24,ESE,114,7.0,-999.0,5,0.00,,,0.00,302,WeatherHawk,2013-04-22 22:05:00,
2013-04-22 18:10:00,57.7,-12.7,30.25,ENE,73,9.0,-999.0,5,0.00,,,0.00,290,WeatherHawk,2013-04-22 22:10:00,
2013-04-22 18:15:00,57.7,-12.7,30.25,ESE,113,8.0,-999.0,5,0.00,,,0.00,257,WeatherHawk,2013-04-22 22:15:00,
2013-04-22 18:20:00,58.0,-12.6,30.23,ENE,77,8.0,-999.0,5,0.00,,,0.00,256,WeatherHawk,2013-04-22 22:20:00,
2013-04-22 18:25:00,58.0,-12.5,30.25,East,99,7.0,-999.0,5,0.00,,,0.00,243,WeatherHawk,2013-04-22 22:25:00,
2013-04-22 18:30:00,57.6,-12.8,30.22,SSE,155,10.0,-999.0,5,0.00,,,0.00,235,WeatherHawk,2013-04-22 22:30:00,
2013-04-22 18:35:00,59.5,-11.4,30.23,ESE,109,4.0,-999.0,5,0.00,,,0.00,225,WeatherHawk,2013-04-22 22:35:00,
2013-04-22 18:45:00,58.9,-11.9,30.23,SE,129,6.0,-999.0,5,0.00,,,0.00,197,WeatherHawk,2013-04-22 22:45:00,
2013-04-22 18:55:00,57.5,-12.9,30.23,East,82,11.0,-999.0,5,0.00,,,0.00,175,WeatherHawk,2013-04-22 22:55:00,
2013-04-22 19:00:00,57.5,-12.9,30.23,SE,124,11.0,-999.0,5,0.00,,,0.00,163,WeatherHawk,2013-04-22 23:00:00,
2013-04-22 19:05:00,57.1,-13.2,30.23,SE,139,10.0,-999.0,5,0.00,,,0.00,149,WeatherHawk,2013-04-22 23:05:00,
2013-04-22 19:10:00,57.0,-13.3,30.22,ESE,117,8.0,-999.0,5,0.00,,,0.00,139,WeatherHawk,2013-04-22 23:10:00,
2013-04-22 19:15:00,56.8,-13.4,30.21,SE,127,12.0,-999.0,5,0.00,,,0.00,127,WeatherHawk,2013-04-22 23:15:00,
2013-04-22 19:20:00,56.7,-13.4,30.22,ENE,70,8.0,-999.0,5,0.00,,,0.00,115,WeatherHawk,2013-04-22 23:20:00,
2013-04-22 19:25:00,56.7,-13.4,30.22,SE,134,7.0,-999.0,5,0.00,,,0.00,102,WeatherHawk,2013-04-22 23:25:00,
2013-04-22 19:30:00,56.4,-10.1,30.23,East,96,5.0,-999.0,6,0.00,,,0.00,94,WeatherHawk,2013-04-22 23:30:00,
2013-04-22 19:35:00,56.3,-13.7,30.22,SE,135,9.0,-999.0,5,0.00,,,0.00,81,WeatherHawk,2013-04-22 23:35:00,
2013-04-22 19:40:00,56.0,-10.4,30.22,SSE,147,11.0,-999.0,6,0.00,,,0.00,50,WeatherHawk,2013-04-22 23:40:00,
2013-04-22 19:45:00,55.8,-14.1,30.23,SSE,149,8.0,-999.0,5,0.00,,,0.00,33,WeatherHawk,2013-04-22 23:45:00,
2013-04-22 19:50:00,55.3,-14.5,30.23,ESE,102,6.0,-999.0,5,0.00,,,0.00,29,WeatherHawk,2013-04-22 23:50:00,
2013-04-22 19:55:00,55.0,-11.1,30.23,ESE,104,6.0,-999.0,6,0.00,,,0.00,26,WeatherHawk,2013-04-22 23:55:00,
2013-04-22 20:00:00,54.9,-11.1,30.23,ENE,64,8.0,-999.0,6,0.00,,,0.00,22,WeatherHawk,2013-04-23 00:00:00,
2013-04-22 20:05:00,54.7,-11.3,30.23,East,96,9.0,-999.0,6,0.00,,,0.00,17,WeatherHawk,2013-04-23 00:05:00,
2013-04-22 20:15:00,53.7,-15.6,30.23,ESE,116,4.0,-999.0,5,0.00,,,0.00,10,WeatherHawk,2013-04-23 00:15:00,
2013-04-22 20:20:00,53.9,-11.8,30.24,SE,133,5.0,-999.0,6,0.00,,,0.00,7,WeatherHawk,2013-04-23 00:20:00,
2013-04-22 20:30:00,53.2,-16.0,30.24,ESE,111,3.0,-999.0,5,0.00,,,0.00,1,WeatherHawk,2013-04-23 00:30:00,
2013-04-22 20:40:00,52.7,-16.3,30.24,ESE,111,5.0,-999.0,5,0.00,,,0.00,0,WeatherHawk,2013-04-23 00:40:00,
2013-04-22 20:45:00,52.7,-16.3,30.24,ENE,63,7.0,-999.0,5,0.00,,,0.00,0,WeatherHawk,2013-04-23 00:45:00,
2013-04-22 20:50:00,52.4,-16.5,30.24,ENE,71,7.0,-999.0,5,0.00,,,0.00,0,WeatherHawk,2013-04-23 00:50:00,
2013-04-22 20:55:00,52.6,-16.4,30.25,ESE,120,7.0,-999.0,5,0.00,,,0.00,0,WeatherHawk,2013-04-23 00:55:00,
2013-04-22 21:05:00,51.6,-17.1,30.23,ESE,108,4.0,-999.0,5,0.00,,,0.00,0,WeatherHawk,2013-04-23 01:05:00,
2013-04-22 21:10:00,51.3,-17.3,30.25,ESE,106,6.0,-999.0,5,0.00,,,0.00,0,WeatherHawk,2013-04-23 01:10:00,
2013-04-22 21:23:00,50.9,-17.6,30.24,ESE,123,4.0,-999.0,5,0.00,,,0.00,0,WeatherHawk,2013-04-23 01:23:00,
2013-04-22 21:30:00,51.0,-17.5,30.24,East,81,6.0,-999.0,5,0.00,,,0.00,0,WeatherHawk,2013-04-23 01:30:00,
2013-04-22 21:40:00,50.2,-18.1,30.24,SE,124,4.0,-999.0,5,0.00,,,0.00,0,WeatherHawk,2013-04-23 01:40:00,
2013-04-22 21:52:00,50.1,-18.2,30.24,ESE,104,5.0,-999.0,5,0.00,,,0.00,0,WeatherHawk,2013-04-23 01:52:00,
2013-04-22 22:00:00,49.6,-4.7,30.25,ESE,105,7.0,-999.0,10,0.00,,,0.00,1,WeatherHawk,2013-04-23 02:00:00,
2013-04-22 22:05:00,49.7,-4.6,30.25,SE,135,6.0,-999.0,10,0.00,,,0.00,0,WeatherHawk,2013-04-23 02:05:00,
2013-04-22 22:15:00,49.5,-12.0,30.25,ESE,114,6.0,-999.0,7,0.00,,,0.00,0,WeatherHawk,2013-04-23 02:15:00,
2013-04-22 22:20:00,49.8,-18.4,30.24,East,95,7.0,-999.0,5,0.00,,,0.00,0,WeatherHawk,2013-04-23 02:20:00,
2013-04-22 22:25:00,49.7,-4.6,30.25,ESE,114,7.0,-999.0,10,0.00,,,0.00,0,WeatherHawk,2013-04-23 02:25:00,
2013-04-22 22:35:00,48.9,-5.2,30.25,SE,140,6.0,-999.0,10,0.00,,,0.00,0,WeatherHawk,2013-04-23 02:35:00,
2013-04-22 22:45:00,48.8,-1.5,30.25,ESE,116,5.0,-999.0,12,0.00,,,0.00,0,WeatherHawk,2013-04-23 02:45:00,
2013-04-22 22:50:00,48.6,-10.0,30.25,ESE,115,7.0,-999.0,8,0.00,,,0.00,0,WeatherHawk,2013-04-23 02:50:00,
2013-04-22 22:55:00,49.1,-3.1,30.25,ESE,120,10.0,-999.0,11,0.00,,,0.00,0,WeatherHawk,2013-04-23 02:55:00,
2013-04-22 23:00:00,49.2,-7.2,30.26,East,89,11.0,-999.0,9,0.00,,,0.00,0,WeatherHawk,2013-04-23 03:00:00,
2013-04-22 23:05:00,49.1,-7.3,30.24,SSE,150,8.0,-999.0,9,0.00,,,0.00,1,WeatherHawk,2013-04-23 03:05:00,
2013-04-22 23:10:00,48.6,-7.6,30.25,ESE,104,7.0,-999.0,9,0.00,,,0.00,0,WeatherHawk,2013-04-23 03:10:00,
2013-04-22 23:15:00,48.5,3.0,30.26,ESE,117,6.0,-999.0,15,0.00,,,0.00,0,WeatherHawk,2013-04-23 03:15:00,
2013-04-22 23:20:00,48.4,-0.1,30.25,SE,124,7.0,-999.0,13,0.00,,,0.00,0,WeatherHawk,2013-04-23 03:20:00,
2013-04-22 23:25:00,48.2,2.7,30.25,East,99,7.0,-999.0,15,0.00,,,0.00,0,WeatherHawk,2013-04-23 03:25:00,
2013-04-22 23:30:00,47.9,-4.0,30.25,SE,128,6.0,-999.0,11,0.00,,,0.00,0,WeatherHawk,2013-04-23 03:30:00,
2013-04-22 23:35:00,47.7,0.9,30.24,SE,132,5.0,-999.0,14,0.00,,,0.00,0,WeatherHawk,2013-04-23 03:35:00,
2013-04-22 23:45:00,47.3,2.1,30.25,SE,124,5.0,-999.0,15,0.00,,,0.00,0,WeatherHawk,2013-04-23 03:45:00,
2013-04-22 23:55:00,47.5,4.9,30.24,SE,131,6.0,-999.0,17,0.00,,,0.00,0,WeatherHawk,2013-04-23 03:55:00,